Chiricana — 3EKU3 — position and weather

sailwx.info

Track history (hours):
 
Tides and Currents Weather Stations Pressure Air Temp Water Temp Dewpoint Dewpoint Depression Visibility Wind Speed Wind Dir Waves Ship Positions

Chiricana

Last reported at 2014-Sep-01 13:32 UTC. Time now 2014-Sep-01 13:40 UTC.
Position N 01°16' E 103°51'.

Length 300 m; draft 11.7 m.

Type: Ship (hazmat cat B). MMSI: 372829000.

Date/timePositionNaut miles runAvg speedWind from/ knotsBaromVisibWave heightAir tempDewpointWater temp
2014-Sep-01 13:32N 01°16' E 103°51'0 0.0
2014-Sep-01 12:32N 01°16' E 103°51'0 0.0
2014-Sep-01 11:29N 01°16' E 103°51'1 0.5
2014-Sep-01 10:31N 01°16' E 103°51'4 4.5
2014-Sep-01 09:34N 01°14' E 103°55'3 2.3
2014-Sep-01 08:26N 01°16' E 103°57'0 0.0
2014-Sep-01 07:32N 01°16' E 103°57'0 0.1
2014-Sep-01 06:32N 01°16' E 103°57'0 0.1
2014-Sep-01 05:29N 01°16' E 103°57'0 0.1
2014-Sep-01 04:32N 01°16' E 103°57'0 0.0
2014-Sep-01 03:17N 01°16' E 103°57'0 0.0
2014-Sep-01 02:29N 01°16' E 103°57'0 0.0
2014-Sep-01 01:23N 01°16' E 103°57'0 0.1
2014-Sep-01 00:29N 01°16' E 103°57'0 0.0
2014-Aug-31 23:23N 01°16' E 103°57'0 0.0
2014-Aug-31 22:32N 01°16' E 103°57'0 0.0
2014-Aug-31 21:32N 01°16' E 103°57'0 0.0
2014-Aug-31 20:32N 01°16' E 103°57'0 0.0
2014-Aug-31 19:32N 01°16' E 103°57'0 0.0
2014-Aug-31 18:32N 01°16' E 103°57'0 0.0
2014-Aug-31 17:32N 01°16' E 103°57'0 0.0
2014-Aug-31 16:32N 01°16' E 103°57'0 0.0
2014-Aug-31 15:32N 01°16' E 103°57'0 0.1
2014-Aug-31 14:33N 01°16' E 103°57'0 0.2
2014-Aug-31 13:33N 01°16' E 103°57'0 0.1
2014-Aug-31 12:33N 01°16' E 103°57'0 0.0
2014-Aug-31 11:33N 01°16' E 103°57'0 0.0
2014-Aug-31 10:33N 01°16' E 103°57'0 0.1
2014-Aug-31 09:33N 01°16' E 103°57'0 0.3
2014-Aug-31 08:33N 01°16' E 103°57'4 4.1
2014-Aug-31 07:33N 01°14' E 103°54'5 4.6
2014-Aug-31 06:33N 01°15' E 103°58'1111.2
2014-Aug-31 05:34N 01°17' E 104°09'  
2014-Aug-26 10:30N 22°34' E 114°17'1 1.1
2014-Aug-26 09:24N 22°34' E 114°16'0 0.0
2014-Aug-26 08:24N 22°34' E 114°16'0 0.0
2014-Aug-26 07:30N 22°34' E 114°16'0 0.0
2014-Aug-26 06:30N 22°34' E 114°16'0 0.0
2014-Aug-26 05:30N 22°34' E 114°16'0 0.0
2014-Aug-26 04:30N 22°34' E 114°16'0 0.0
2014-Aug-26 03:30N 22°34' E 114°16'0 0.0
2014-Aug-26 02:30N 22°34' E 114°16'0 0.0
2014-Aug-26 01:30N 22°34' E 114°16'0 0.0
2014-Aug-26 00:30N 22°34' E 114°16'0 0.0
2014-Aug-25 23:30N 22°34' E 114°16'0 0.0
2014-Aug-25 22:30N 22°34' E 114°16'0 0.0
2014-Aug-25 21:30N 22°34' E 114°16'0 0.0
2014-Aug-25 20:24N 22°34' E 114°16'0 0.0
2014-Aug-25 19:30N 22°34' E 114°16'0 0.0
2014-Aug-25 18:24N 22°34' E 114°16'0 0.0
2014-Aug-25 17:18N 22°34' E 114°16'0 0.0
2014-Aug-25 16:30N 22°34' E 114°16'0 0.0
2014-Aug-25 15:30N 22°34' E 114°16'0 0.0
2014-Aug-25 14:24N 22°34' E 114°16'0 0.0
2014-Aug-25 13:30N 22°34' E 114°16'0 0.0
2014-Aug-25 12:30N 22°34' E 114°16'0 0.0
2014-Aug-25 11:30N 22°34' E 114°16'0 0.0
2014-Aug-25 10:30N 22°34' E 114°16'0 0.0
2014-Aug-25 09:30N 22°34' E 114°16'0 0.0
2014-Aug-25 08:30N 22°34' E 114°16'0 0.0
2014-Aug-25 07:30N 22°34' E 114°16'0 0.0
2014-Aug-25 06:25N 22°34' E 114°16'0 0.0
2014-Aug-25 05:30N 22°34' E 114°16'0 0.0
2014-Aug-25 04:29N 22°34' E 114°16'0 0.0
2014-Aug-25 03:30N 22°34' E 114°16'0 0.0
2014-Aug-25 02:30N 22°34' E 114°16'0 0.0
2014-Aug-25 01:29N 22°34' E 114°16'0 0.0
2014-Aug-25 00:30N 22°34' E 114°16'16 1.8
2014-Aug-24 15:31N 22°20' E 114°07'0 0.0
2014-Aug-24 08:15N 22°20' E 114°08'0 0.0
2014-Aug-23 22:03N 22°20' E 114°08'  
Track history (hours):
 
Tides and Currents Weather Stations Pressure Air Temp Water Temp Dewpoint Dewpoint Depression Visibility Wind Speed Wind Dir Waves Ship Positions

Chiricana

Last reported at 2014-Sep-01 13:32 UTC. Time now 2014-Sep-01 13:40 UTC.
Position N 01°16' E 103°51'.

Length 300 m; draft 11.7 m.

Type: Ship (hazmat cat B). MMSI: 372829000.

Date/timePositionNaut miles runAvg speedWind from/ knotsBaromVisibWave heightAir tempDewpointWater temp
2014-Sep-01 13:32N 01°16' E 103°51'0 0.0
2014-Sep-01 12:32N 01°16' E 103°51'0 0.0
2014-Sep-01 11:29N 01°16' E 103°51'1 0.5
2014-Sep-01 10:31N 01°16' E 103°51'4 4.5
2014-Sep-01 09:34N 01°14' E 103°55'3 2.3
2014-Sep-01 08:26N 01°16' E 103°57'0 0.0
2014-Sep-01 07:32N 01°16' E 103°57'0 0.1
2014-Sep-01 06:32N 01°16' E 103°57'0 0.1
2014-Sep-01 05:29N 01°16' E 103°57'0 0.1
2014-Sep-01 04:32N 01°16' E 103°57'0 0.0
2014-Sep-01 03:17N 01°16' E 103°57'0 0.0
2014-Sep-01 02:29N 01°16' E 103°57'0 0.0
2014-Sep-01 01:23N 01°16' E 103°57'0 0.1
2014-Sep-01 00:29N 01°16' E 103°57'0 0.0
2014-Aug-31 23:23N 01°16' E 103°57'0 0.0
2014-Aug-31 22:32N 01°16' E 103°57'0 0.0
2014-Aug-31 21:32N 01°16' E 103°57'0 0.0
2014-Aug-31 20:32N 01°16' E 103°57'0 0.0
2014-Aug-31 19:32N 01°16' E 103°57'0 0.0
2014-Aug-31 18:32N 01°16' E 103°57'0 0.0
2014-Aug-31 17:32N 01°16' E 103°57'0 0.0
2014-Aug-31 16:32N 01°16' E 103°57'0 0.0
2014-Aug-31 15:32N 01°16' E 103°57'0 0.1
2014-Aug-31 14:33N 01°16' E 103°57'0 0.2
2014-Aug-31 13:33N 01°16' E 103°57'0 0.1
2014-Aug-31 12:33N 01°16' E 103°57'0 0.0
2014-Aug-31 11:33N 01°16' E 103°57'0 0.0
2014-Aug-31 10:33N 01°16' E 103°57'0 0.1
2014-Aug-31 09:33N 01°16' E 103°57'0 0.3
2014-Aug-31 08:33N 01°16' E 103°57'4 4.1
2014-Aug-31 07:33N 01°14' E 103°54'5 4.6
2014-Aug-31 06:33N 01°15' E 103°58'1111.2
2014-Aug-31 05:34N 01°17' E 104°09'  
2014-Aug-26 10:30N 22°34' E 114°17'1 1.1
2014-Aug-26 09:24N 22°34' E 114°16'0 0.0
2014-Aug-26 08:24N 22°34' E 114°16'0 0.0
2014-Aug-26 07:30N 22°34' E 114°16'0 0.0
2014-Aug-26 06:30N 22°34' E 114°16'0 0.0
2014-Aug-26 05:30N 22°34' E 114°16'0 0.0
2014-Aug-26 04:30N 22°34' E 114°16'0 0.0
2014-Aug-26 03:30N 22°34' E 114°16'0 0.0
2014-Aug-26 02:30N 22°34' E 114°16'0 0.0
2014-Aug-26 01:30N 22°34' E 114°16'0 0.0
2014-Aug-26 00:30N 22°34' E 114°16'0 0.0
2014-Aug-25 23:30N 22°34' E 114°16'0 0.0
2014-Aug-25 22:30N 22°34' E 114°16'0 0.0
2014-Aug-25 21:30N 22°34' E 114°16'0 0.0
2014-Aug-25 20:24N 22°34' E 114°16'0 0.0
2014-Aug-25 19:30N 22°34' E 114°16'0 0.0
2014-Aug-25 18:24N 22°34' E 114°16'0 0.0
2014-Aug-25 17:18N 22°34' E 114°16'0 0.0
2014-Aug-25 16:30N 22°34' E 114°16'0 0.0
2014-Aug-25 15:30N 22°34' E 114°16'0 0.0
2014-Aug-25 14:24N 22°34' E 114°16'0 0.0
2014-Aug-25 13:30N 22°34' E 114°16'0 0.0
2014-Aug-25 12:30N 22°34' E 114°16'0 0.0
2014-Aug-25 11:30N 22°34' E 114°16'0 0.0
2014-Aug-25 10:30N 22°34' E 114°16'0 0.0
2014-Aug-25 09:30N 22°34' E 114°16'0 0.0
2014-Aug-25 08:30N 22°34' E 114°16'0 0.0
2014-Aug-25 07:30N 22°34' E 114°16'0 0.0
2014-Aug-25 06:25N 22°34' E 114°16'0 0.0
2014-Aug-25 05:30N 22°34' E 114°16'0 0.0
2014-Aug-25 04:29N 22°34' E 114°16'0 0.0
2014-Aug-25 03:30N 22°34' E 114°16'0 0.0
2014-Aug-25 02:30N 22°34' E 114°16'0 0.0
2014-Aug-25 01:29N 22°34' E 114°16'0 0.0
2014-Aug-25 00:30N 22°34' E 114°16'16 1.8
2014-Aug-24 15:31N 22°20' E 114°07'0 0.0
2014-Aug-24 08:15N 22°20' E 114°08'0 0.0
2014-Aug-23 22:03N 22°20' E 114°08'  

Dump ship's entire track history